Location: Bermeries
(50.2863°N, 3.7551°E)
Time: 19:55:58
(UTC+00:00)

Cosmos 1850 Rocket - Pass Details

Date: 23 May 2024
Orbit: 753 x 782 km, 74.0° (Epoch: 14 June)

Event Time Altitude Azimuth Distance (km) Brightness Sun altitude
Exits shadow 01:46:17 20° 195° (SSW) 1,748 5.3 -13.9°
Maximum altitude 01:50:02 78° 112° (ESE) 796 4.1 -13.6°
Drops below altitude 10° 01:55:19 10° 26° (NNE) 2,321 8.0 -13.2°
Sets 01:57:41 0° 26° (NNE) 3,247 9.2 -13.0°
